Regional Weather Roundup
Issued by NWS Green Bay, WI

Home | Current Version | Previous Version | Text Only | Print | Product List | Glossary On
Versions: 1 2 3 4 5 6 7 8 9 10 11 12 13 14 15 16 17 18 19 20 21 22 23 24 25 26 27 28 29 30 31 32 33 34 35 36 37 38 39 40 41 42 43 44 45 46 47 48 49 50
000
ASUS43 KGRB 251810
RWRGRB

NORTH-CENTRAL AND NORTHEAST WISCONSIN REGIONAL WEATHER ROUNDUP
NATIONAL WEATHER SERVICE GREEN BAY WI
1200 PM CST THU DEC 25 2014

WIZ005-009-010>012-018-019-251900-
NORTH CENTRAL WISCONSIN

CITY           SKY/WX    TMP DP  RH WIND       PRES   REMARKS
IRONWOOD       CLOUDY    32  28  86 SW10      29.66R
MANITOWISH WTR CLOUDY    30  28  92 SW13      29.69R
ARBOR VITAE    CLOUDY    32  28  86 SW10G18   29.69S
EAGLE RIVER    CLOUDY    31  29  93 SW7       29.69S
LAND O LAKES   CLOUDY    32  29  90 SW8       29.69R
RHINELANDER    CLOUDY    31  27  85 SW10      29.72R
PHILLIPS       CLOUDY    31  27  85 SW12      29.71S
ANTIGO         CLOUDY    30  27  88 SW12      29.75S
TOMAHAWK       CLOUDY    31  27  84 CALM      29.74R
MERRILL        CLOUDY    31  27  86 SW9G17    29.76R
$$

WIZ013-073-251900-
NORTHEAST WISCONSIN

CITY           SKY/WX    TMP DP  RH WIND       PRES   REMARKS
IRON MOUNTAIN  CLOUDY    34  28  79 SW10      29.71R
MARINETTE      CLOUDY    36  28  75 W12G17    29.77S
OCONTO         CLOUDY    35  30  83 SW10G20   29.80R
$$

WIZ017-030-035>037-045-251900-
CENTRAL WISCONSIN

CITY           SKY/WX    TMP DP  RH WIND       PRES   REMARKS
MEDFORD        CLOUDY    30  26  86 SW9       29.76R
WAUSAU         CLOUDY    31  27  85 SW13      29.76S
MOSINEE        CLOUDY    30  28  93 SW9G17    29.79R
MARSHFIELD     CLOUDY    32  27  81 SW14      29.79R
WISC RAPIDS    CLOUDY    33  26  75 SW7       29.82S
STEVENS POINT  CLOUDY    30  26  83 SW9       29.81R
WAUPACA        CLOUDY    36  29  75 SW9       29.82S
SHAWANO        CLOUDY    35  29  76 SW13G18   29.80R
CLINTONVILLE   CLOUDY    32  28  86 SW15      29.81S
$$

WIZ038-039-048-051-251900-
FOX VALLEY

CITY           SKY/WX    TMP DP  RH WIND       PRES   REMARKS
NWS GREEN BAY  CLOUDY    34  29  82 SW14G23   29.82S
APPLETON       CLOUDY    34  30  86 SW16      29.83R
OSHKOSH        CLOUDY    34  28  79 SW14G22   29.83S
FOND DU LAC    PTSUNNY   35  28  75 SW14      29.84S
$$

WIZ022-050-052-251900-
EAST CENTRAL WISCONSIN

CITY           SKY/WX    TMP DP  RH WIND       PRES   REMARKS
STURGEON BAY   CLOUDY    34  27  75 SW18      29.80S
MANITOWOC      CLOUDY    35  29  78 W16       29.84R
SHEBOYGAN      PTSUNNY   36  29  75 SW15G21   29.85R
$$

LMZ563-521-522-541>543-251900-
LAKESHORE

STATION/POSITION TIME  TEMP    WIND        PRES    VSBY  WAVE
                       AIR SEA DIR/SP/G                  HT/PER
                 (UTC) (F)     (DEG/KT/KT) (MB)    (MI)  (FT/S)
SHEBOYGAN LKSHOR 1800   35 37  220/ 17/ 20 1011.7R
KEWAUNEE LKSHORE 1800   35     240/ 13/ 19 1009.1R
ALGOMA MARINA    1800          270/ 14/ 18   N/A
TWO RIVERS CG    1700   35 37              1010.4      6   0
NORTHPORT PIER   1800   35     230/ 10/ 18 1007.8S
SISTER BAY LKSHO 1800          220/ 18/ 24   N/A
CHAMBERS ISLAND  1800   35     200/  9/ 14 1008.5S
MENOMINEE LKSHOR 1800   35     220/ 16/ 20 1009.2R
$$


USA.gov is the U.S. government's official web portal to all federal, state and local government web resources and services.